sat.trackr.live / text

‹ back to catalog

SDA_1678

NORAD 65988 · 2025-230Q

PAYLOAD ACTIVE UNKNOWN

§ Identity

Operator
Country
US
Launch date
2025-10-15
Launch site
AFWTR
Launch vehicle
Mass (kg)
RCS (m²)

External: N2YO · Heavens-Above · Gunter

§ Orbital elements

Epoch: 2026-05-25T05:13:12.679968Z

Period
103.97 min
Inclination
81.3017°
Eccentricity
0.0000391
Mean motion
13.84978330 rev/d
Perigee alt
946.0 km
Apogee alt
946.6 km
Semi-major
7,324.4 km
B*
1.7500e-4
RAAN
232.8403°
Arg perigee
238.1001°
Mean anomaly
122.0118°
Rev number
3,064

§ Raw data

SDA_16781 65988U 25230Q   26145.21750787  .00000210  00000+0  17500-3 0  99912 65988  81.3017 232.8403 0000391 238.1001 122.0118 13.84978330 30642

JSON: /api/v1/satellites/65988 · /tle

For live sub-satellite position, see the globe view (requires WebGL).

§ Visibility from observer

Set your observer location to see the next 7 days of passes ≥ 10°. The values pass through the URL so the page stays shareable.

No JS? Fill the form by hand. The geolocation button needs JavaScript.